Namest Nad Oslav, Czech Republic

1:35 PM CEST on June 27, 2017 (GMT +0200)
Namest

Weather History for LKNA - November, 2012

Change the Weather History Date:

Monday, November 12, 2012

  Actual Average Record
Temperature  
Mean Temperature 44 °F -  
Max Temperature 48 °F - - ()
Min Temperature 41 °F - - ()
Degree Days  
Heating Degree Days 20    
Moisture  
Dew Point 43 °F    
Average Humidity 96    
Maximum Humidity 100    
Minimum Humidity 93    
Precipitation  
Precipitation 0.00 in - - ()
Sea Level Pressure  
Sea Level Pressure 30.21 in    
Wind  
Wind Speed 4 mph ()    
Max Wind Speed 8 mph    
Max Gust Speed -    
Visibility 2.6 miles    
Events Rain    
T = Trace of Precipitation, MM = Missing Value Source: Averaged Metar Reports

Daily Weather History Graph

Daily Weather History Graph

Search for Another Location

Airport or City:

Trip Planner

Search our weather history database for the weather conditions in past years. The results will help you decide how hot, cold, wet, or windy it might be!

Date:

Astronomy

Nov. 12, 2012 Rise Set
Actual Time 7:01 AM CET 4:17 PM CET
Civil Twilight 6:26 AM CET 4:52 PM CET
Nautical Twilight 5:48 AM CET 5:30 PM CET
Astronomical Twilight 5:10 AM CET 6:07 PM CET
Moon 4:58 AM CET (11/12) 3:14 PM CET (11/12)
Length of Visible Light 10h 25m
Length of Day
9h 16m
Waning Crescent, 3% of the Moon is Illuminated
Nov 12
Waning Crescent
Nov 13
New
Nov 20
First Quarter
Nov 28
Full
Dec 6
Last Quarter

Hourly Weather History & Observations

Time (CET) Temp. Windchill Dew Point Humidity Pressure Visibility Wind Dir Wind Speed Gust Speed Precip Events Conditions
12:00 AM 41.0 °F - 39.2 °F 93% 30.04 in - Variable 2.3 mph - N/A   Clear
1:00 AM 41.0 °F 38.0 °F 39.2 °F 93% 30.09 in 6.2 mi West 4.6 mph - N/A   Overcast
2:00 AM 42.8 °F 41.1 °F 41.0 °F 93% 30.09 in 6.2 mi NW 3.5 mph - N/A   Overcast
3:00 AM 42.8 °F 38.0 °F 42.8 °F 100% 30.12 in 3.1 mi WNW 8.1 mph - N/A   Overcast
4:00 AM 42.8 °F 41.1 °F 41.0 °F 93% 30.12 in 1.9 mi WNW 3.5 mph - N/A   Overcast
5:00 AM 42.8 °F 39.3 °F 42.8 °F 100% 30.12 in 1.6 mi NW 5.8 mph - N/A   Mist
5:39 AM 42.8 °F 39.3 °F 42.8 °F 100% 30.12 in 0.9 mi NNW 5.8 mph - N/A Rain Light Rain
6:00 AM 42.8 °F 39.3 °F 42.8 °F 100% 30.15 in 0.9 mi NW 5.8 mph - N/A Rain Light Rain
8:00 AM 42.8 °F 40.1 °F 42.8 °F 100% 30.18 in 0.9 mi NW 4.6 mph - N/A Rain Light Rain
9:00 AM 44.6 °F 42.2 °F 42.8 °F 93% 30.18 in 1.2 mi NNW 4.6 mph - N/A   Overcast
10:00 AM 44.6 °F 43.1 °F 44.6 °F 100% 30.21 in 1.2 mi North 3.5 mph - N/A   Overcast
11:00 AM 46.4 °F 43.5 °F 44.6 °F 93% 30.21 in 1.9 mi NNW 5.8 mph - N/A   Mostly Cloudy
12:00 PM 46.4 °F 44.3 °F 44.6 °F 93% 30.24 in 3.1 mi WNW 4.6 mph - N/A   Mostly Cloudy
1:00 PM 48.2 °F - 46.4 °F 93% 30.24 in 3.1 mi NNW 3.5 mph - N/A   Mostly Cloudy
2:00 PM 48.2 °F - 46.4 °F 93% 30.24 in 3.7 mi NNW 3.5 mph - N/A   Mostly Cloudy
3:00 PM 46.4 °F 43.5 °F 44.6 °F 93% 30.24 in 3.1 mi NNW 5.8 mph - N/A   Mostly Cloudy
4:00 PM 46.4 °F 44.3 °F 44.6 °F 93% 30.24 in 3.1 mi NW 4.6 mph - N/A   Overcast
5:00 PM 46.4 °F 45.2 °F 44.6 °F 93% 30.27 in 3.1 mi NW 3.5 mph - N/A   Mist
6:00 PM 46.4 °F 45.2 °F 44.6 °F 93% 30.27 in 3.1 mi NW 3.5 mph - N/A Rain Light Rain
7:00 PM 44.6 °F 42.2 °F 44.6 °F 100% 30.30 in 3.1 mi NW 4.6 mph - N/A Rain Light Rain
8:00 PM 44.6 °F - 44.6 °F 100% 30.30 in 2.5 mi NNW 2.3 mph - N/A   Mist
9:00 PM 44.6 °F 43.1 °F 42.8 °F 93% 30.33 in 2.2 mi WNW 3.5 mph - N/A   Mist
10:00 PM 44.6 °F 42.2 °F 42.8 °F 93% 30.33 in 1.9 mi NNW 4.6 mph - N/A   Mist
11:00 PM 42.8 °F - 42.8 °F 100% 30.33 in 1.9 mi Calm Calm - N/A   Mostly Cloudy